This is the latest recevied weather packets stored in our database for station/object CQ0XCR-11. If no packets are shown the sender has not sent any weather packets the latest 1 day(s).
| Time | Temp. | Humidity | Pressure | Rain* | Wind** | Luminosity | Snow |
|---|---|---|---|---|---|---|---|
| 1778030400 | -2.78° C | - | 6550.2 hPa | 0.25 mm | 1.34 m/s, 12° | - | - |
| 1778030275 | -2.78° C | - | 6550.2 hPa | 0.25 mm | 0.89 m/s, 62° | - | - |
| 1778030152 | -2.78° C | - | 6550.2 hPa | 0.25 mm | 0.89 m/s, 66° | - | - |
| 1778029904 | -2.78° C | - | 6550.2 hPa | 0.25 mm | 0 m/s | - | - |
| 1778029815 | -2.78° C | - | 6550.2 hPa | 0.25 mm | 0.45 m/s, 48° | - | - |
| 1778029779 | -2.78° C | - | 6550.2 hPa | 0.25 mm | 0.45 m/s, 48° | - | - |
| 1778029689 | -2.78° C | - | 6550.2 hPa | 0.25 mm | 1.34 m/s, 73° | - | - |
| 1778029655 | -2.78° C | - | 6550.2 hPa | 0.25 mm | 1.34 m/s, 73° | - | - |
| 1778029533 | -2.78° C | - | 6550.2 hPa | 0.25 mm | 1.34 m/s, 45° | - | - |
| 1778029408 | -2.78° C | - | 6550.2 hPa | 0.25 mm | 1.34 m/s, 27° | - | - |
| 1778029283 | -2.78° C | - | 6550.2 hPa | 0.25 mm | 0.89 m/s, 91° | - | - |
| 1778029160 | -2.78° C | - | 6550.2 hPa | 0.25 mm | 1.34 m/s, 57° | - | - |
| 1778029076 | -2.78° C | - | 6550.2 hPa | 0.25 mm | 1.34 m/s, 37° | - | - |
| 1778029035 | -2.78° C | - | 6550.2 hPa | 0.25 mm | 1.34 m/s, 37° | - | - |
| 1778028912 | -2.78° C | - | 6550.2 hPa | 0.25 mm | 0.89 m/s, 82° | - | - |
| 1778028724 | -2.78° C | - | 6550.2 hPa | 0.25 mm | 1.79 m/s, 62° | - | - |
| 1778028664 | -2.78° C | - | 6550.2 hPa | 0.25 mm | 1.79 m/s, 62° | - | - |
| 1778028539 | -2.78° C | - | 6550.2 hPa | 0.25 mm | 0.89 m/s, 84° | - | - |
| 1778028457 | -2.78° C | - | 6550.2 hPa | 0.25 mm | 0.45 m/s, 45° | - | - |
| 1778028416 | -2.78° C | - | 6550.2 hPa | 0.25 mm | 0.45 m/s, 45° | - | - |
| 1778028291 | -2.78° C | - | 6550.2 hPa | 0.25 mm | 0.45 m/s, 92° | - | - |
| 1778028168 | -2.78° C | - | 6550.2 hPa | 0.25 mm | 1.79 m/s, 45° | - | - |
| 1778028047 | -2.78° C | - | 6550.2 hPa | 0.25 mm | 0.89 m/s, 86° | - | - |
| 1778027920 | -2.78° C | - | 6550.2 hPa | 0.25 mm | 0.89 m/s, 80° | - | - |
| 1778027795 | -2.78° C | - | 6550.2 hPa | 0.25 mm | 0.45 m/s, 51° | - | - |
* Rain since midnight (hover to see other rain measurements)
** Current wind speed in m/s (hover to see current wind gust speed)